Regional Weather Roundup
Issued by NWS

Home | Current Version | Previous Version | Graphics & Text | Print | Product List | Glossary On
Versions: 1 2 3 4 5 6 7 8 9 10 11 12 13 14 15 16 17 18 19 20 21 22 23 24 25 26 27 28 29 30 31 32 33 34 35 36 37 38 39 40 41 42 43 44 45 46 47 48 49 50
000
ASUS45 KCYS 282010
RWRWY

WYOMING REGIONAL WEATHER ROUNDUP
NATIONAL WEATHER SERVICE CHEYENNE WY
100 PM MST SUN DEC 28 2014

NOTE:  "FAIR" INDICATES FEW OR NO CLOUDS BELOW 12,000 FEET
WITH NO SIGNIFICANT WEATHER AND/OR OBSTRUCTIONS TO VISIBILITY.

WYZ001-282100-
YELLOWSTONE NATIONAL PARK

CITY           SKY/WX    TMP DP  RH WIND       PRES   REMARKS
LK YELLOWSTONE   N/A     16  10  77 CALM      29.83S
W YELLOWSTONE  NOT AVBL

$$
WYZ002>013-054>058-071-098>099-282100-
NORTHERN WYOMING

CITY           SKY/WX    TMP DP  RH WIND       PRES   REMARKS
JACKSON        LGT SNOW  19  18  93 S7        29.88F WCI  10
CODY           CLOUDY    16  12  86 N3        29.84S
GREYBULL       CLOUDY    13   6  74 NE3       29.92F
WORLAND        CLOUDY     8   2  76 SE5       29.89F WCI   0
SHERIDAN       CLOUDY    24  13  62 CALM      29.87S
BUFFALO        CLOUDY    27  18  69 N3        29.83S
GILLETTE       PTSUNNY   25  13  60 CALM      29.85S
HULETT           N/A    N/A N/A N/A MISG        N/A
NEWCASTLE      FAIR      27  14  59 S3        29.87S

$$
WYZ014>020-022>026-101>103-282100-
CENTRAL WYOMING

CITY           SKY/WX    TMP DP  RH WIND       PRES   REMARKS
BIG PINEY      LGT SNOW  13   6  74 NE5       29.87F VSB 1   WCI   5
PINEDALE       SNOW      12  10  92 CALM      29.87F VSB 1/2
DUBOIS         NOT AVBL
LANDER         PTSUNNY   18   7  62 CALM      29.81F
RIVERTON       CLOUDY    20   6  55 CALM      29.83S
CASPER         FAIR      26  13  57 SW15G23   29.84F WCI  14
DOUGLAS        FAIR      30  15  53 W9        29.82S WCI  22

$$
WYZ021-027>030-104>119-282100-
SOUTHERN WYOMING

CITY           SKY/WX    TMP DP  RH WIND       PRES   REMARKS
EVANSTON       LGT SNOW  22  17  81 W20G25    29.92F WCI   7
FORT BRIDGER   MOCLDY    25  18  77 W24G32    29.93S WCI   9
ROCK SPRINGS   FLURRIES  22  17  81 W22       29.86F WCI   6
DIXON          LGT SNOW  22  15  72 SW18G29   29.94F WCI   8
RAWLINS        LGT SNOW  20  13  74 SW25G32   29.81F WCI   2
SARATOGA       CLOUDY    23  12  63 SW7       29.86F WCI  15
LARAMIE        PTSUNNY   19  10  68 W7        29.80S WCI  10
CHEYENNE       FAIR      33  11  39 W6        29.81S WCI  28
TORRINGTON     CLOUDY    33  18  53 W8        29.85F WCI  26
PINE BLUFFS    FAIR      30  12  47 S5        29.85F WCI  25

$$


USA.gov is the U.S. government's official web portal to all federal, state and local government web resources and services.